TimeCST,TemperatureF,Dew PointF,Humidity,Sea Level PressureIn,VisibilityMPH,Wind Direction,Wind SpeedMPH,Gust SpeedMPH,PrecipitationIn,Events,Conditions,WindDirDegrees,DateUTC
12:12 AM,59.0,57.2,94,29.93,1.0,SE,4.6,-,N/A,,Mist,130,2012-12-08 06:12:00
12:19 AM,59.0,57.2,94,29.93,1.8,ESE,4.6,-,N/A,,Partly Cloudy,120,2012-12-08 06:19:00
12:37 AM,59.0,57.2,94,29.93,0.5,SE,3.5,-,N/A,Fog,Fog,140,2012-12-08 06:37:00
12:45 AM,59.0,59.0,100,29.93,0.2,SE,4.6,-,N/A,Fog,Fog,140,2012-12-08 06:45:00
12:53 AM,59.0,57.9,96,29.91,0.2,SE,4.6,-,N/A,Fog,Fog,140,2012-12-08 06:53:00
1:34 AM,59.0,57.2,94,29.93,0.2,Calm,Calm,-,N/A,Fog,Fog,0,2012-12-08 07:34:00
1:53 AM,59.0,57.9,96,29.91,0.2,Calm,Calm,-,N/A,Fog,Fog,0,2012-12-08 07:53:00
2:53 AM,59.0,59.0,100,29.91,0.2,Calm,Calm,-,N/A,Fog,Fog,0,2012-12-08 08:53:00
3:53 AM,60.1,60.1,100,29.92,0.2,SSW,3.5,-,N/A,Fog,Fog,200,2012-12-08 09:53:00
4:00 AM,60.8,60.8,100,29.94,0.2,Calm,Calm,-,N/A,Fog,Fog,0,2012-12-08 10:00:00
4:18 AM,60.8,60.8,100,29.94,0.2,South,3.5,-,N/A,Fog,Fog,180,2012-12-08 10:18:00
4:53 AM,60.1,60.1,100,29.93,0.2,South,4.6,-,N/A,Fog,Fog,170,2012-12-08 10:53:00
5:53 AM,60.1,60.1,100,29.94,0.2,SSE,4.6,-,0.01,Fog,Fog,160,2012-12-08 11:53:00
6:53 AM,60.1,60.1,100,29.95,0.2,SE,3.5,-,N/A,Fog,Fog,140,2012-12-08 12:53:00
7:53 AM,61.0,60.1,97,29.95,0.2,SSE,6.9,-,N/A,Fog,Fog,150,2012-12-08 13:53:00
8:53 AM,62.1,61.0,96,29.96,0.2,SSE,6.9,-,N/A,Fog,Fog,150,2012-12-08 14:53:00
9:24 AM,62.6,62.6,100,29.99,1.0,South,6.9,-,N/A,,Mist,170,2012-12-08 15:24:00
9:53 AM,63.0,62.1,97,29.97,1.8,SSE,8.1,-,N/A,,Overcast,160,2012-12-08 15:53:00
10:02 AM,62.6,62.6,100,29.99,2.0,SSE,6.9,-,N/A,,Overcast,160,2012-12-08 16:02:00
10:12 AM,62.6,62.6,100,29.99,4.0,SSE,5.8,-,N/A,,Overcast,160,2012-12-08 16:12:00
10:53 AM,64.0,62.1,93,29.96,8.0,SSW,3.5,-,N/A,,Overcast,210,2012-12-08 16:53:00
11:34 AM,64.4,62.6,94,29.96,8.0,SSW,4.6,-,N/A,,Overcast,200,2012-12-08 17:34:00
11:53 AM,64.9,61.0,87,29.94,8.0,South,8.1,-,N/A,,Overcast,180,2012-12-08 17:53:00
12:53 PM,66.9,62.1,84,29.91,10.0,SSW,4.6,-,0.00,Rain,Light Rain,200,2012-12-08 18:53:00
1:53 PM,71.1,62.1,73,29.90,10.0,South,5.8,-,0.00,,Overcast,180,2012-12-08 19:53:00
2:53 PM,71.1,60.1,68,29.89,10.0,South,8.1,-,N/A,,Overcast,180,2012-12-08 20:53:00
3:53 PM,69.1,60.1,73,29.90,10.0,SSE,3.5,-,N/A,,Overcast,160,2012-12-08 21:53:00
4:53 PM,66.0,59.0,78,29.91,10.0,South,4.6,-,N/A,,Partly Cloudy,170,2012-12-08 22:53:00
5:53 PM,64.9,60.1,84,29.91,10.0,Calm,Calm,-,N/A,,Clear,0,2012-12-08 23:53:00
6:53 PM,63.0,60.1,90,29.93,10.0,Calm,Calm,-,N/A,,Clear,0,2012-12-09 00:53:00
7:53 PM,64.0,61.0,90,29.94,7.0,Calm,Calm,-,N/A,,Clear,0,2012-12-09 01:53:00
8:53 PM,63.0,61.0,93,29.93,8.0,SE,3.5,-,N/A,,Clear,140,2012-12-09 02:53:00
9:53 PM,62.1,60.1,93,29.94,7.0,SSE,3.5,-,N/A,,Clear,150,2012-12-09 03:53:00
10:53 PM,61.0,59.0,93,29.94,7.0,SSE,4.6,-,N/A,,Clear,150,2012-12-09 04:53:00
11:53 PM,60.1,59.0,96,29.93,7.0,SSE,3.5,-,N/A,,Clear,160,2012-12-09 05:53:00